Weather History for Gwinner, ND

Change the Weather History Date:

Monday, February 10, 2014

  Actual Average (KP67) Record (KP67)
Temperature  
Mean Temperature -4 °F -  
Max Temperature 5 °F 22 °F 34 °F (1998)
Min Temperature -13 °F 6 °F -4 °F (1997)
Degree Days  
Heating Degree Days 69    
Moisture  
Dew Point -13 °F    
Average Humidity 67    
Maximum Humidity 78    
Minimum Humidity 56    
Precipitation  
Precipitation 0.00 in - - ()
Sea Level Pressure  
Sea Level Pressure 30.42 in    
Wind  
Wind Speed 8 mph (WSW)    
Max Wind Speed 13 mph    
Max Gust Speed -    
Visibility 10 miles    
Events      
Averages and records for this station are not official NWS values.
T = Trace of Precipitation, MM = Missing Value Source: NWS Daily Summary

Daily Weather History Graph

Daily Weather History Graph

Search for Another Location

Airport:

Trip Planner

Search our weather history database for the weather conditions in past years. The results will help you decide how hot, cold, wet, or windy it might be!

Date:

Astronomy

Feb. 10, 2014 Rise Set
Actual Time 7:41 AM CST 5:49 PM CST
Civil Twilight 7:09 AM CST 6:20 PM CST
Nautical Twilight 6:34 AM CST 6:55 PM CST
Astronomical Twilight 5:59 AM CST 7:30 PM CST
Moon 2:13 PM CST (2/10) 4:41 AM CST (2/10)
Length of Visible Light 11h 10m
Length of Day
10h 07m
Waxing Gibbous, 85% of the Moon is Illuminated
Feb 10
Waxing Gibbous
Feb 14
Full
Feb 22
Last Quarter
Mar 1
New
Mar 8
First Quarter

Hourly Weather History & Observations

Time (CST) Temp. Windchill Dew Point Humidity Pressure Visibility Wind Dir Wind Speed Gust Speed Precip Events Conditions
12:15 AM -7.6 °F -26.6 °F -16.6 °F 65% 30.43 in 10.0 mi West 11.5 mph - 0.00 in   Clear
12:35 AM -7.6 °F -25.7 °F -14.8 °F 71% 30.43 in 10.0 mi WNW 10.4 mph - 0.00 in   Clear
12:55 AM -5.8 °F -23.4 °F -14.8 °F 65% 30.43 in 10.0 mi WNW 10.4 mph - 0.00 in   Clear
1:15 AM -5.8 °F -24.4 °F -14.8 °F 65% 30.42 in 10.0 mi WNW 11.5 mph - 0.00 in   Clear
1:35 AM -7.6 °F -25.7 °F -14.8 °F 71% 30.41 in 10.0 mi WNW 10.4 mph - 0.00 in   Clear
1:55 AM -7.6 °F -27.5 °F -14.8 °F 71% 30.41 in 10.0 mi NW 12.7 mph - 0.00 in   Clear
2:15 AM -5.8 °F -23.4 °F -14.8 °F 65% 30.41 in 10.0 mi NW 10.4 mph - 0.00 in   Clear
2:35 AM -5.8 °F -23.4 °F -14.8 °F 65% 30.42 in 10.0 mi NW 10.4 mph - 0.00 in   Clear
2:55 AM -7.6 °F -26.6 °F -14.8 °F 71% 30.43 in 10.0 mi NW 11.5 mph - 0.00 in   Clear
3:15 AM -5.8 °F -24.4 °F -14.8 °F 65% 30.43 in 10.0 mi NW 11.5 mph - 0.00 in   Clear
3:35 AM -5.8 °F -25.2 °F -14.8 °F 65% 30.43 in 10.0 mi NW 12.7 mph - 0.00 in   Clear
3:55 AM -5.8 °F -25.2 °F -14.8 °F 65% 30.44 in 10.0 mi NW 12.7 mph - 0.00 in   Clear
4:15 AM -7.6 °F -26.6 °F -14.8 °F 71% 30.43 in 10.0 mi NW 11.5 mph - 0.00 in   Clear
4:35 AM -7.6 °F -26.6 °F -14.8 °F 71% 30.43 in 10.0 mi NW 11.5 mph - 0.00 in   Clear
4:55 AM -7.6 °F -24.6 °F -16.6 °F 65% 30.43 in 10.0 mi NNW 9.2 mph - 0.00 in   Clear
5:15 AM -7.6 °F -23.4 °F -16.6 °F 65% 30.44 in 10.0 mi NW 8.1 mph - 0.00 in   Clear
5:35 AM -7.6 °F -22.1 °F -16.6 °F 65% 30.44 in 10.0 mi NW 6.9 mph - 0.00 in   Clear
5:55 AM -9.4 °F -20.9 °F -16.6 °F 71% 30.43 in 10.0 mi NNW 4.6 mph - 0.00 in   Clear
6:15 AM -9.4 °F -20.9 °F -16.6 °F 71% 30.43 in 10.0 mi WNW 4.6 mph - 0.00 in   Clear
6:35 AM -9.4 °F -24.3 °F -16.6 °F 71% 30.43 in 10.0 mi West 6.9 mph - 0.00 in   Clear
6:55 AM -9.4 °F -22.7 °F -18.4 °F 65% 30.43 in 10.0 mi NW 5.8 mph - 0.00 in   Clear
7:15 AM -11.2 °F -26.4 °F -18.4 °F 70% 30.44 in 10.0 mi WSW 6.9 mph - 0.00 in   Clear
7:35 AM -13.0 °F -22.7 °F -20.2 °F 70% 30.43 in 10.0 mi WNW 3.5 mph - 0.00 in   Clear
7:55 AM -13.0 °F -28.6 °F -20.2 °F 70% 30.44 in 10.0 mi WSW 6.9 mph - 0.00 in   Clear
8:15 AM -13.0 °F -30.0 °F -20.2 °F 70% 30.45 in 10.0 mi WSW 8.1 mph - 0.00 in   Clear
8:35 AM -11.2 °F -24.8 °F -18.4 °F 70% 30.45 in 10.0 mi West 5.8 mph - 0.00 in   Clear
8:55 AM -9.4 °F -24.3 °F -18.4 °F 65% 30.45 in 10.0 mi West 6.9 mph - 0.00 in   Clear
9:15 AM -9.4 °F -25.6 °F -16.6 °F 71% 30.45 in 10.0 mi West 8.1 mph - 0.00 in   Clear
9:35 AM -7.6 °F -20.6 °F -14.8 °F 71% 30.45 in 10.0 mi West 5.8 mph - 0.00 in   Clear
9:55 AM -5.8 °F -14.5 °F -14.8 °F 65% 30.46 in 10.0 mi West 3.5 mph - 0.00 in   Clear
10:15 AM -5.8 °F -14.5 °F -13.0 °F 71% 30.46 in 10.0 mi West 3.5 mph - 0.00 in   Clear
10:35 AM -4.0 °F -12.4 °F -13.0 °F 65% 30.46 in 10.0 mi West 3.5 mph - 0.00 in   Clear
10:55 AM -2.2 °F - -11.2 °F 66% 30.46 in 10.0 mi Calm Calm - 0.00 in   Clear
11:15 AM -0.4 °F - - N/A% 30.46 in 10.0 mi Calm Calm - 0.00 in   Clear
11:35 AM -0.4 °F - -9.4 °F 66% 30.46 in 10.0 mi Calm Calm - 0.00 in   Clear
11:55 AM -0.4 °F -10.4 °F -9.4 °F 66% 30.46 in 10.0 mi WSW 4.6 mph - 0.00 in   Clear
12:15 PM 1.4 °F -8.3 °F -9.4 °F 61% 30.46 in 10.0 mi SW 4.6 mph - 0.00 in   Clear
12:35 PM 1.4 °F -9.9 °F -7.6 °F 66% 30.46 in 10.0 mi SW 5.8 mph - 0.00 in   Clear
12:55 PM 3.2 °F -9.1 °F -7.6 °F 61% 30.45 in 10.0 mi SW 6.9 mph - 0.00 in   Clear
1:15 PM 3.2 °F -10.3 °F -5.8 °F 66% 30.44 in 10.0 mi SW 8.1 mph - 0.00 in   Clear
1:35 PM 3.2 °F -10.3 °F -5.8 °F 66% 30.44 in 10.0 mi WSW 8.1 mph - 0.00 in   Clear
1:55 PM 3.2 °F -9.1 °F -7.6 °F 61% 30.43 in 10.0 mi SW 6.9 mph - 0.00 in   Clear
2:15 PM 3.2 °F -9.1 °F -7.6 °F 61% 30.43 in 10.0 mi WSW 6.9 mph - 0.00 in   Clear
2:35 PM 3.2 °F -6.2 °F -5.8 °F 66% 30.42 in 10.0 mi West 4.6 mph - 0.00 in   Clear
2:55 PM 5.0 °F -6.9 °F -5.8 °F 61% 30.43 in 10.0 mi WSW 6.9 mph - 0.00 in   Clear
3:15 PM 5.0 °F -5.6 °F -5.8 °F 61% 30.43 in 10.0 mi SW 5.8 mph - 0.00 in   Clear
3:35 PM 5.0 °F -2.1 °F -5.8 °F 61% 30.42 in 10.0 mi WSW 3.5 mph - 0.00 in   Clear
3:55 PM 5.0 °F -4.1 °F -5.8 °F 61% 30.42 in 10.0 mi SW 4.6 mph - 0.00 in   Clear
4:15 PM 5.0 °F -4.1 °F -5.8 °F 61% 30.42 in 10.0 mi SSW 4.6 mph - 0.00 in   Clear
4:35 PM 5.0 °F -4.1 °F -5.8 °F 61% 30.42 in 10.0 mi SSW 4.6 mph - 0.00 in   Clear
4:55 PM 5.0 °F -2.1 °F -5.8 °F 61% 30.42 in 10.0 mi SSW 3.5 mph - 0.00 in   Clear
5:15 PM 5.0 °F -5.6 °F -7.6 °F 56% 30.42 in 10.0 mi SSW 5.8 mph - 0.00 in   Clear
5:35 PM 3.2 °F -6.2 °F -7.6 °F 61% 30.41 in 10.0 mi South 4.6 mph - 0.00 in   Clear
5:55 PM 1.4 °F -9.9 °F -7.6 °F 66% 30.41 in 10.0 mi South 5.8 mph - 0.00 in   Clear
6:15 PM -0.4 °F -12.0 °F -7.6 °F 72% 30.40 in 10.0 mi South 5.8 mph - 0.00 in   Clear
6:35 PM -0.4 °F -14.7 °F -9.4 °F 66% 30.41 in 10.0 mi South 8.1 mph - 0.00 in   Clear
6:55 PM -2.2 °F -15.6 °F -9.4 °F 71% 30.41 in 10.0 mi SSW 6.9 mph - 0.00 in   Clear
7:15 PM -4.0 °F -17.8 °F -9.4 °F 78% 30.41 in 10.0 mi South 6.9 mph - 0.00 in   Clear
7:35 PM -4.0 °F -19.0 °F -11.2 °F 71% 30.40 in 10.0 mi SSW 8.1 mph - 0.00 in   Clear
7:55 PM -4.0 °F -19.0 °F - N/A% 30.40 in 10.0 mi SSW 8.1 mph - 0.00 in   Clear
8:15 PM -4.0 °F -21.2 °F - N/A% 30.40 in 10.0 mi SSW 10.4 mph - 0.00 in   Clear
8:35 PM -4.0 °F -19.0 °F -11.2 °F 71% 30.39 in 10.0 mi SSW 8.1 mph - 0.00 in   Clear
8:55 PM -5.8 °F -19.9 °F -13.0 °F 71% 30.39 in 10.0 mi SSW 6.9 mph - 0.00 in   Clear
9:15 PM -5.8 °F -19.9 °F -13.0 °F 71% 30.39 in 10.0 mi SSW 6.9 mph - 0.00 in   Clear
9:35 PM -7.6 °F -22.1 °F -14.8 °F 71% 30.38 in 10.0 mi South 6.9 mph - 0.00 in   Clear
9:55 PM -7.6 °F -22.1 °F -14.8 °F 71% 30.38 in 10.0 mi South 6.9 mph - 0.00 in   Clear
10:15 PM -7.6 °F -24.6 °F -14.8 °F 71% 30.37 in 10.0 mi South 9.2 mph - 0.00 in   Clear
10:35 PM -7.6 °F -23.4 °F -14.8 °F 71% 30.36 in 10.0 mi South 8.1 mph - 0.00 in   Clear
10:55 PM -7.6 °F -22.1 °F -14.8 °F 71% 30.36 in 10.0 mi SSW 6.9 mph - 0.00 in   Clear
11:15 PM -7.6 °F -22.1 °F -14.8 °F 71% 30.35 in 10.0 mi South 6.9 mph - 0.00 in   Clear
11:35 PM -9.4 °F -24.3 °F -14.8 °F 77% 30.34 in 10.0 mi South 6.9 mph - 0.00 in   Clear
11:55 PM -9.4 °F -24.3 °F -16.6 °F 71% 30.33 in 10.0 mi South 6.9 mph - 0.00 in   Clear